Location: Maccacari
(45.1333°N, 11.1333°E)
Time: 17:05:12
(UTC+00:00)

USA 234 - Pass Details

Date: 17 January 2021
Orbit: 1100 x 1107 km, 123.0° (Epoch: 01 March)

Event Time Altitude Azimuth Distance (km) Brightness Sun altitude
Exits shadow 17:19:03 17° 69° (ENE) 2,453 4.4 -13.3°
Maximum altitude 17:23:18 36° 14° (NNE) 1,681 4.0 -14.0°
Drops below altitude 10° 17:29:08 10° 311° (NW) 2,968 6.0 -15.0°
Sets 17:31:48 0° 303° (WNW) 3,928 6.8 -15.5°
